TimeCST,TemperatureF,Dew PointF,Humidity,Sea Level PressureIn,VisibilityMPH,Wind Direction,Wind SpeedMPH,Gust SpeedMPH,PrecipitationIn,Events,Conditions,WindDirDegrees,DateUTC
12:52 AM,45.0,3.9,18,30.23,10.0,SSW,8.1,-,N/A,,Clear,200,2012-12-22 06:52:00
1:52 AM,43.0,5.0,21,30.22,10.0,SSW,10.4,-,N/A,,Clear,200,2012-12-22 07:52:00
2:52 AM,41.0,6.1,24,30.21,10.0,SW,9.2,-,N/A,,Clear,220,2012-12-22 08:52:00
3:52 AM,39.9,5.0,23,30.21,10.0,SW,8.1,-,N/A,,Clear,220,2012-12-22 09:52:00
4:52 AM,37.9,6.1,27,30.21,10.0,SSW,5.8,-,N/A,,Clear,200,2012-12-22 10:52:00
5:52 AM,37.0,6.1,28,30.21,10.0,South,9.2,-,N/A,,Clear,190,2012-12-22 11:52:00
6:52 AM,37.9,5.0,25,30.22,10.0,South,9.2,-,N/A,,Clear,180,2012-12-22 12:52:00
7:52 AM,39.9,3.9,22,30.23,10.0,South,9.2,-,N/A,,Clear,180,2012-12-22 13:52:00
8:52 AM,43.0,5.0,21,30.23,10.0,South,10.4,-,N/A,,Clear,190,2012-12-22 14:52:00
9:52 AM,48.0,12.0,24,30.21,10.0,SSW,10.4,-,N/A,,Clear,200,2012-12-22 15:52:00
10:52 AM,51.1,24.1,35,30.19,10.0,South,15.0,-,N/A,,Clear,190,2012-12-22 16:52:00
11:52 AM,55.0,32.0,42,30.16,10.0,South,18.4,27.6,N/A,,Clear,190,2012-12-22 17:52:00
12:52 PM,57.0,34.0,42,30.11,10.0,SSW,25.3,36.8,N/A,,Clear,200,2012-12-22 18:52:00
1:52 PM,62.1,35.1,37,30.06,10.0,South,19.6,31.1,N/A,,Clear,190,2012-12-22 19:52:00
2:52 PM,61.0,37.9,42,30.05,10.0,SSW,18.4,27.6,N/A,,Clear,210,2012-12-22 20:52:00
3:52 PM,62.1,36.0,38,30.04,10.0,SSW,18.4,25.3,N/A,,Clear,210,2012-12-22 21:52:00
4:52 PM,61.0,37.0,41,30.01,10.0,South,8.1,-,N/A,,Clear,180,2012-12-22 22:52:00
5:52 PM,61.0,37.0,41,30.03,10.0,SSW,10.4,-,N/A,,Clear,210,2012-12-22 23:52:00
6:52 PM,60.1,39.9,47,30.02,10.0,SSW,13.8,-,N/A,,Clear,200,2012-12-23 00:52:00
7:52 PM,57.9,39.9,51,30.02,10.0,South,11.5,-,N/A,,Clear,180,2012-12-23 01:52:00
8:52 PM,57.0,42.1,57,30.02,10.0,South,16.1,21.9,N/A,,Clear,190,2012-12-23 02:52:00
9:52 PM,57.0,44.1,62,30.00,10.0,South,15.0,21.9,N/A,,Mostly Cloudy,190,2012-12-23 03:52:00
10:52 PM,55.9,44.1,64,30.00,10.0,SSW,11.5,21.9,N/A,,Clear,200,2012-12-23 04:52:00
11:52 PM,54.0,44.1,69,29.99,10.0,SSW,16.1,-,N/A,,Clear,210,2012-12-23 05:52:00